N0YFE Weather Reports


Display with metric or nautical units.
time (UTC)temp
F
wind
direction
speed
MPH
gust
MPH
rain 1hr
in
rain 24hr
in
rain mn
in
humidity
%
barometer
mb
20260504043057 57 329 0.0 4.0 0.00 0.00 0.00 42 1001.7
20260504041559 58 39 0.0 0.0 0.00 0.00 0.00 41 1001.6
20260504040054 58 6 0.0 3.0 0.00 0.00 0.00 40 1002.3
20260504034553 57 32 0.0 2.0 0.00 0.00 0.00 42 1002.6
20260504033051 58 86 0.0 1.0 0.00 0.00 0.00 40 1002.5
20260504031550 58 86 0.0 1.0 0.00 0.00 0.00 38 1003.2
20260504030049 60 86 0.0 1.0 0.00 0.00 0.00 36 1003.4
20260504024609 61 86 0.0 0.0 0.00 0.00 0.00 33 1003.5
20260504023048 62 73 0.0 1.0 0.00 0.00 0.00 32 1003.2
20260504020043 63 57 0.0 2.0 0.00 0.00 0.00 30 1003.3
20260504014541 64 65 0.0 2.0 0.00 0.00 0.00 28 1003.3
20260504013040 65 110 0.0 3.0 0.00 0.00 0.00 27 1003.3
20260504011539 66 77 0.0 2.0 0.00 0.00 0.00 25 1003.3
20260504010037 67 93 1.0 9.0 0.00 0.00 0.00 25 1003.4
20260504004544 68 63 1.0 7.0 0.00 0.00 0.00 24 1003.5
20260504003041 68 82 4.0 11.0 0.00 0.00 0.00 24 1003.6
20260504001542 69 93 5.0 10.0 0.00 0.00 0.00 24 1003.7
20260504000053 69 106 4.0 11.0 0.00 0.00 0.00 24 1003.6
20260503234535 69 105 2.0 7.0 0.00 0.00 0.00 24 1003.7
20260503233031 70 117 6.0 11.0 0.00 0.00 0.00 22 1003.8
20260503231531 70 89 5.0 18.0 0.00 0.00 0.00 22 1003.9
20260503230030 70 110 3.0 11.0 0.00 0.00 0.00 22 1004.0
20260503224529 71 89 6.0 10.0 0.00 0.00 0.00 21 1004.2
20260503223036 70 178 5.0 14.0 0.00 0.00 0.00 21 1004.2
20260503221525 71 103 4.0 12.0 0.00 0.00 0.00 21 1004.2
20260503220026 70 68 4.0 12.0 0.00 0.00 0.00 21 1004.3
20260503214524 71 115 4.0 10.0 0.00 0.00 0.00 22 1004.6
20260503213023 70 115 6.0 10.0 0.00 0.00 0.00 22 1004.7
20260503211522 71 155 2.0 12.0 0.00 0.00 0.00 21 1004.8
20260503210020 70 120 4.0 12.0 0.00 0.00 0.00 22 1004.9
20260503204520 69 115 6.0 14.0 0.00 0.00 0.00 22 1005.2
20260503203028 69 110 5.0 13.0 0.00 0.00 0.00 22 1005.2
20260503201519 70 75 3.0 8.0 0.00 0.00 0.00 22 1005.3
20260503200018 69 132 8.0 12.0 0.00 0.00 0.00 21 1005.5
20260503194517 69 122 7.0 14.0 0.00 0.00 0.00 23 1005.5
20260503193018 70 131 5.0 12.0 0.00 0.00 0.00 29 1005.6
20260503191514 68 127 8.0 15.0 0.00 0.00 0.00 27 1005.9
20260503190012 68 125 10.0 19.0 0.00 0.00 0.00 27 1005.8
20260503184510 69 120 5.0 15.0 0.00 0.00 0.00 25 1005.8
20260503183007 69 117 6.0 14.0 0.00 0.00 0.00 29 1006.0
20260503181506 68 114 8.0 14.0 0.00 0.00 0.00 30 1006.1
20260503180004 68 103 1.0 14.0 0.00 0.00 0.00 33 1006.5
20260503174508 68 58 3.0 13.0 0.00 0.00 0.00 34 1006.6
20260503173004 68 115 6.0 13.0 0.00 0.00 0.00 33 1006.6
20260503171603 68 123 0.0 7.0 0.00 0.00 0.00 37 1006.7
20260503081558 57 25 2.0 5.0 0.00 0.00 0.00 48 1005.0
20260503071601 58 329 2.0 6.0 0.00 0.00 0.00 50 1006.0